Tracking 29040 objects as of 15-Jun-2024
HD Live streaming from Space Station
objects crossing your sky now

DMSP 5D-2 F15 (USA 147)

Track DMSP 5D-2 F15 (USA 147) now!
10-day predictions
DMSP 5D-2 F15 (USA 147) is classified as:


NORAD ID: 25991
Int'l Code: 1999-067A
Perigee: 836.2 km
Apogee: 848.9 km
Inclination: 99.1 °
Period: 101.6 minutes
Semi major axis: 7213 km
RCS: Unknown
Launch date: December 12, 1999
Source: United States (US)
Launch site: AIR FORCE WESTERN TEST RANGE (AFWTR)

Near-polar orbits; investigate Earth's environment.
Your satellite tracking list
Your tracking list is empty




NASA's NSSDC Master Catalog

Two Line Element Set (TLE):
1 25991U 99067A   24166.95514721  .00000282  00000-0  16326-3 0  9993
2 25991  99.0644 182.3462 0008823 284.1470 135.3076 14.17020807266923
Source of the keplerian elements: McCants